Location: Casteau
(50.5142°N, 4.0161°E)
Time: 08:51:07
(UTC+00:00)

Cosmos 494 Rocket - Pass Details

Date: 18 September 2020
Orbit: 741 x 771 km, 74.1° (Epoch: 27 October)

Event Time Altitude Azimuth Distance (km) Brightness Sun altitude
Rises 19:55:57 0° 335° (NNW) 3,244 8.1 -19.9°
Reaches altitude 10° 19:58:20 10° 335° (NNW) 2,317 7.2 -20.3°
Maximum altitude 20:03:36 87° 250° (WSW) 778 3.9 -21.0°
Enters shadow 20:05:37 39° 160° (SSE) 1,141 4.5 -21.3°
